Погода в Называевске

Погода в Называевске : погода сейчас, прогноз погоды и архив. Всё, что Вы хотите узнать о погоде в Называевске!

Хотите узнать прогноз погоды в Называевске? Тогда Вам сюда: Погода в Называевске

Поиск расширенной информации на нашем сайте:

Другие новости

Новости СМИ2

Главная страница сайта

Новости сайта

03.07.2017

Напоминаем, что на нашем специализированном сайте Метеоцентр.Азия вы можете получить высокодетализированные автоматические прогнозы погоды по пунктам России, СНГ и мира в авиационном формате (включающие направление и скорость ветра, видимость, явления погоды, количество и форму облачности, нижнюю и верхнюю границу облачности).


Погода в Называевске - сегодня

Время (UTC), дата Ветер
(°,м/с) 
Видим.   Явления Облачность Т
(°С)
Тd
(°С)
f(%) Тe
(°С)
Pmin
(гПа)
dP
(гПа)
Po
(мм)
O2
(г/м3)
Тmin Tmax R s Состояние
почвы
15 11.10.18 250 (З) 8-12{13}  20000 м    9/0 средняя 
[Ac As]
+9.6 +1.8 58 +7  1000.7  0.4  739  287    +14.8       
21 11.10.18 230 (ЮЗ) 5{12}  20000 м    10/10 600 м 
[Sc]
+6.5 +2.7 77 +5  998.6  -0.8  738  290           
03 12.10.18 250 (З) 5{10}  40000 м    8/8 600 м 
[Sc]
+3.7 +0.2 78 +1  998.6  0.7  738  293  +2.7        сухая 
09 12.10.18 280 (З) 40000 м    9/9 600 м кучево-дожд. 
[Cb cap]
+2.6 -0.3 81 +1  1001.2  1.4  739  295           
15 12.10.18 300 (СЗ) 4000 м  слаб. дождь  9/4 600 м кучево-дожд., средняя 
[Cb cap|Ac As]
+1.8 -0.2 87 1003.6  741  297    +4.7  0.0     
21 12.10.18 300 (СЗ) 20000 м  {снег}  6/0 средняя 
[Ac trans]
-1.2 -2.9 88 -2  1003.7  -0.1  741  300           
03 13.10.18 280 (З) 40000 м    6/0 средняя, верхняя 
[Ac lent|Ci sp]
-2.7 -4.6 87 -4  1004.6  0.5  742  302  -4.2    0.0    замёрзшая 
09 13.10.18 310 (СЗ) 40000 м  {ливн. осадки}  9/8 600 м кучево-дожд., верхняя 
[Cb cap|Ci sp]
+4 -7.3 43 +3  1004.5  0.1  742  295           
21 13.10.18 220 (ЮЗ) 20000 м    6/0 средняя 
[Ac trans]
-2.1 -3.5 90 -3  1008.2  0.7  744  303           
03 14.10.18 220 (ЮЗ) 7000 м  дымка{снег}  10/0 средняя 
[As op]
-1.2 -2.2 93 -3  1010  0.9  746  302  -2.2    0.0  <0.5  равномерный
сухой снег
100% 
09 14.10.18 220 (ЮЗ) 1600 м  ливневой снег  9/9 600 м кучево-дожд. 
[Cb cap]
+0.8 -0.8 89 1012.1  0.9  747  300           
15 14.10.18 170 (Ю) 20000 м    8/0 верхняя 
[Ci sp]
-0.5 -2.5 86 -1  1014.1  749  303    +2.9  0.6     
21 14.10.18 160 (Ю) 20000 м    9/9 600 м кучево-дожд. 
[Cb cap]
-1.3 -2.5 92 -3  1015.7  0.8  750  304           
03 15.10.18 120 (ЮВ) 4300 м  слаб. снег{ливн. осадки}  10/0 средняя 
[As op]
-0.8 -1.6 94 -3  1017.6  1.1  751  304  -2    0.2  <0.5  равномерный
сухой снег
100% 
09 15.10.18 130 (ЮВ) 40000 м  {ливн. осадки}  9/9 600 м кучево-дожд. 
[Cb cap]
+1.4 -1 84 1018.5  0.2  752  302           
15 15.10.18 020 (С) 20000 м    9/9 600 м кучево-дожд. 
[Cb cap]
-0.8 -2.3 90 1020.4  0.8  753  305    +1.5  0.3     
21 15.10.18 040 (СВ) 20000 м    ясно 
-2.4 -3.7 91 -3  1020.2  -0.5  753  307           
09 16.10.18 360 (С) 40000 м    3/3 600 м 
[Cu med, cong]
+4.3 -3.3 58 +3  1020.9  -0.6  754  299           
21 16.10.18 230 (ЮЗ) 4000 м  дымка  9/0 верхняя 
[Ci sp]
-2.5 -3.5 93 -5  1020.2  -1  753  307           
15 17.10.18 200 (Ю) 7-10{13}  4000 м  слаб. морось{снег}  10/10 300 м 
[St]
+0.9 -0.5 90 -3  1003.4  -3.6  741  298    +1.7  0.4     
21 17.10.18 170 (Ю) 4000 м  слаб. снег  10/10 300 м 
[Ns]
+1.2 +0.1 92 -2  996.4  -3.2  736  295           
03 18.10.18 270 (З) 8000 м  слаб. дождь  10/10 300 м 
[Frnb|Ns]
+1.8 +0.6 92 993.6  -0.6  734  294  +0.7    11     
09 18.10.18 250 (З) 40000 м  {ливн. осадки, дождь}  9/9 300 м кучево-дожд. 
[Cb cap]
+2.8 +0.1 82 +1  995.2  0.8  735  293           
15 18.10.18 120 (ЮВ) 20000 м  в посл. час ливневой дождь  9/9 600 м кучево-дожд. 
[Cb cap]
+1.1 -0.3 90 +2  998.6  1.7  737  296    +3.9  0.9     
21 18.10.18 050 (СВ) 20000 м    10/10 600 м 
[Sc]
+0.2 -0.9 92 -1  1002.3  2.1  740  298           
Время (UTC), дата Ветер
(°,м/с) 
Видим.   Явления Облачность Т
(°С)
Тd
(°С)
f(%) Тe
(°С)
Pmin
(гПа)
dP
(гПа)
Po
(мм)
O2
(г/м3)
Тmin Tmax R s Состояние
почвы

Для получения пояснительной информации подведите курсор к названию столбца.

ПОГОДА в Называевске - архив

Всё, что Вы хотите узнать о погоде в Называевске - удобно и подробно!

Выберите нужную дату (начиная с 1 января 2015* года) и нажмите кнопку "Найти".
Будут отображены архивные сводки погоды по пункту Называевск, начиная с указанной даты.


Отображать данные в формате CSV (для использования в таблицах Excel)


Внимание! Наш архив погоды предназначен исключительно для личного некоммерческого использования в познавательных целях. Если Вам необходимы официальные справки о состоянии погоды (для производственных, юридических, коммерческих и т.п. целей), обращайтесь в органы Росгидромета.

*Примечание: данная дата относится к архиву по метеостанциям СССР (Россия, СНГ, Балтия).
Архив по метеостанциям Зарубежной Европы и Азии (кроме Китая) хранится 10 дней, по другим регионам земного шара (Китай, Африка, Америка, Австралия, Океания) - 1 день.

Называевск - район местоположения метеостанции


Название, широта, долгота, высота метеостанции:
Называевск 55.6°ш. 71.4°д. 126 м над ур. моря [Российская Федерация]

Дополнительная информация

В oтличие oт бoльшинства пoгoдных сайтoв мы публикуем пoдрoбную метеoинфoрмацию в детальнoм прoфессиoнальнoм фoрмате.

Характеристики температуры и влажнoсти вoздуха измеряются на высoте 2 м в тени вдали oт зданий и деревьев.
Скoрoсть ветра измеряется на высoте 10 м (на урoвне рoста челoвека скoрoсть ветра ниже в 1.5-2 раза). Если метеoстанция нахoдится в гoрoде или в лесу, тo скoрoсть ветра занижена на 2-4 м/с пo сравнению с oткрытым местoм. Скoрoсть ветра над акватoриями крупных рек и oзёр, а также на вершинах хoлмoв на 2-5 м/с выше, чем в oбычных услoвиях.
Атмoсфернoе давление в разных тoчках местнoсти мoжет значительнo oтличаться oт давления на метеoстанции, в зависимoсти oт услoвий рельефа (при пoдъёме на 10 м давление пoнижается примернo на 1 мм рт.ст.).